Binghamton, NY

7:57 PM EDT on September 23, 2017 (GMT -0400)
Binghamton Regional-Link

Weather History for KBGM - September, 2013

Change the Weather History Date:

Saturday, September 28, 2013

  Actual Average Record
Temperature  
Mean Temperature 56 °F 55 °F  
Max Temperature 67 °F 64 °F 79 °F (1959)
Min Temperature 45 °F 46 °F 30 °F (1989)
Degree Days  
Heating Degree Days 9 11  
Month to date heating degree days 228 172  
Since 1 July heating degree days 279 235  
Cooling Degree Days 0 0  
Month to date cooling degree days 41 29  
Year to date cooling degree days 468 377  
Growing Degree Days 6 (Base 50)    
Moisture  
Dew Point 48 °F    
Average Humidity 76    
Maximum Humidity 100    
Minimum Humidity 52    
Precipitation  
Precipitation 0.00 in 0.13 in 1.63 in (2006)
Month to date precipitation 2.91 3.38  
Year to date precipitation 33.20 29.59  
Snow  
Snow 0.00 in 0.00 in T in (2007)
Month to date snowfall 0.0 0.0  
Since 1 July snowfall 0.0 0.0  
Since 1 September snowfall 0.0 0.0  
Snow Depth 0.00 in    
Sea Level Pressure  
Sea Level Pressure 30.30 in    
Wind  
Wind Speed 5 mph (SE)    
Max Wind Speed 10 mph    
Max Gust Speed 16 mph    
Visibility 10 miles    
Events      
T = Trace of Precipitation, MM = Missing Value Source: NWS Daily Summary

Daily Weather History Graph

Daily Weather History Graph

Search for Another Location

Airport or City:

Trip Planner

Search our weather history database for the weather conditions in past years. The results will help you decide how hot, cold, wet, or windy it might be!

Date:

Astronomy

Sep. 28, 2013 Rise Set
Actual Time 6:57 AM EDT 6:50 PM EDT
Civil Twilight 6:30 AM EDT 7:18 PM EDT
Nautical Twilight 5:57 AM EDT 7:50 PM EDT
Astronomical Twilight 5:24 AM EDT 8:23 PM EDT
Moon 12:37 AM EDT (9/28) 3:12 PM EDT (9/28)
Length of Visible Light 12h 48m
Length of Day
11h 52m
Last Quarter, 36% of the Moon is Illuminated
Sep 28
Last Quarter
Oct 4
New
Oct 11
First Quarter
Oct 18
Full
Oct 26
Last Quarter

Hourly Weather History & Observations

Time (EDT) Temp. Windchill Dew Point Humidity Pressure Visibility Wind Dir Wind Speed Gust Speed Precip Events Conditions
12:53 AM 50.0 °F - 46.9 °F 89% 30.28 in 10.0 mi ENE 8.1 mph - N/A   Mostly Cloudy
1:53 AM 50.0 °F - 46.9 °F 89% 30.28 in 10.0 mi East 3.5 mph - N/A   Overcast
2:53 AM 48.9 °F - 46.9 °F 93% 30.28 in 10.0 mi ENE 4.6 mph - N/A   Overcast
3:53 AM 48.0 °F - 46.9 °F 96% 30.28 in 10.0 mi East 4.6 mph - N/A   Mostly Cloudy
4:53 AM 48.0 °F - 46.0 °F 93% 30.29 in 10.0 mi East 3.5 mph - N/A   Mostly Cloudy
5:53 AM 46.0 °F 43.1 °F 45.0 °F 96% 30.30 in 10.0 mi ESE 5.8 mph - N/A   Partly Cloudy
6:53 AM 45.0 °F 42.6 °F 44.1 °F 97% 30.32 in 9.0 mi ESE 4.6 mph - N/A   Clear
7:53 AM 48.0 °F - 46.9 °F 96% 30.34 in 10.0 mi ESE 3.5 mph - N/A   Clear
8:53 AM 52.0 °F - 50.0 °F 93% 30.35 in 10.0 mi SE 5.8 mph - N/A   Clear
9:53 AM 55.9 °F - 51.1 °F 84% 30.35 in 10.0 mi SSE 9.2 mph - N/A   Clear
10:53 AM 59.0 °F - 52.0 °F 78% 30.35 in 10.0 mi Calm Calm - N/A   Clear
11:45 AM 60.8 °F - 51.8 °F 72% 30.34 in 10.0 mi SSW 5.8 mph - N/A   Mostly Cloudy
11:53 AM 61.0 °F - 52.0 °F 72% 30.34 in 10.0 mi SSW 4.6 mph - N/A   Mostly Cloudy
12:20 PM 62.6 °F - 51.8 °F 68% 30.33 in 10.0 mi SSE 5.8 mph - N/A   Mostly Cloudy
12:53 PM 63.0 °F - 51.1 °F 65% 30.32 in 10.0 mi SE 5.8 mph - N/A   Scattered Clouds
1:53 PM 64.9 °F - 50.0 °F 58% 30.31 in 10.0 mi South 8.1 mph - N/A   Mostly Cloudy
2:53 PM 64.9 °F - 48.9 °F 56% 30.29 in 10.0 mi South 3.5 mph - N/A   Mostly Cloudy
3:53 PM 66.0 °F - 48.0 °F 52% 30.27 in 10.0 mi Variable 4.6 mph - N/A   Partly Cloudy
4:53 PM 63.0 °F - 48.0 °F 58% 30.27 in 10.0 mi Calm Calm - N/A   Clear
5:53 PM 64.9 °F - 46.9 °F 52% 30.27 in 10.0 mi South 4.6 mph - N/A   Scattered Clouds
6:53 PM 61.0 °F - 46.9 °F 60% 30.27 in 10.0 mi SSE 3.5 mph - N/A   Clear
7:53 PM 60.1 °F - 46.0 °F 60% 30.27 in 10.0 mi SSE 4.6 mph - N/A   Clear
8:53 PM 57.0 °F - 45.0 °F 64% 30.27 in 10.0 mi SSE 5.8 mph - N/A   Clear
9:53 PM 55.9 °F - 46.0 °F 69% 30.27 in 10.0 mi South 6.9 mph - N/A   Clear
10:53 PM 55.0 °F - 46.0 °F 72% 30.25 in 10.0 mi South 6.9 mph - N/A   Clear
11:53 PM 54.0 °F - 46.0 °F 75% 30.25 in 10.0 mi SSE 4.6 mph - N/A   Clear